Inquirer Daily News

Weather

Get conditions and forecasts for any City, State, ZIP code or Country:  
Trenton, NJ
on Monday, January 21, 2013

Monday
Previous Day Next Day
Daily Summary
 ActualAverageRecord
Temperature
Mean Temperature °F 31°F  
Max Temperature 32°F 39°F 64°F (1959)
Min Temperature 23°F 23°F -10°F (1985)
Degree Days
Heating Degree Days 37 34  
Month to date heating degree days 580 713  
Since 1 July heating degree days 2338 2608  
Cooling Degree Days 0 0  
Month to date cooling degree days 0 0  
Year to date cooling degree days 0 0  
Moisture
Dew Point 14°F   
Average Humidity 55    
Maximum Humidity 68    
Minimum Humidity 42    
Precipitation
Precipitation 0.01 in 0.09 in 2.22 in (1979)
Month to date precipitation 1.64 2.15  
Year to date precipitation 1.64 2.15  
Wind
Wind Speed 5 mph   
Max Wind Speed 16 mph   
Max Gust Speed 23 mph   
Visibility 8 miles   
Events Snow   

Key: T is trace of precipitation, MM is missing value
Source: NWS Daily Summary
Time(EST)TemperatureDew PointHumidity Pressure Visibility Wind DirectionWind SpeedGust SpeedPrecipitationEvents Conditions
12:53 AM 28.9°F 10.9°F 47% 30.05 in 10.0 miles NNW 6.9 mph - N/A   Clear
1:53 AM 28.0°F 10.9°F 49% 30.07 in 10.0 miles NNW 4.6 mph - N/A   Clear
2:53 AM 27.0°F 10.9°F 51% 30.08 in 10.0 miles WNW 3.5 mph - N/A   Clear
3:53 AM 26.1°F 10.0°F 51% 30.07 in 10.0 miles WNW 3.5 mph - N/A   Clear
4:53 AM 25.0°F 10.9°F 55% 30.07 in 10.0 miles WNW 3.5 mph - N/A   Clear
5:53 AM 25.0°F 10.9°F 55% 30.07 in 10.0 miles WNW 3.5 mph - N/A   Clear
6:53 AM 24.1°F 10.9°F 57% 30.08 in 10.0 miles Calm Calm - N/A   Clear
7:53 AM 24.1°F 12.0°F 60% 30.08 in 10.0 miles Calm Calm - N/A   Clear
8:53 AM 26.1°F 10.0°F 51% 30.08 in 10.0 miles West 3.5 mph - N/A   Overcast
9:53 AM 27.0°F 10.9°F 51% 30.08 in 10.0 miles West 3.5 mph - N/A   Overcast
10:53 AM 28.0°F 9.0°F 45% 30.05 in 10.0 miles Calm Calm - N/A   Mostly Cloudy
11:53 AM 30.0°F 10.0°F 43% 30.01 in 10.0 miles SW 9.2 mph - N/A   Overcast
12:53 PM 30.0°F 10.0°F 43% 29.98 in 10.0 miles SSW 8.1 mph - N/A   Overcast
1:53 PM 30.9°F 10.9°F 43% 29.95 in 10.0 miles SW 6.9 mph - N/A   Overcast
2:53 PM 30.9°F 12.0°F 46% 29.92 in 10.0 miles SW 3.5 mph - N/A   Overcast
3:53 PM 30.9°F 10.9°F 43% 29.87 in 10.0 miles South 4.6 mph - N/A   Overcast
4:53 PM 32.0°F 12.0°F 44% 29.86 in 10.0 miles Calm Calm - N/A   Overcast
5:53 PM 30.9°F 12.9°F 47% 29.87 in 10.0 miles NNE 5.8 mph - N/A   Overcast
6:53 PM 30.9°F 12.9°F 47% 29.87 in 10.0 miles North 6.9 mph - N/A   Overcast
7:11 PM 30.2°F 17.6°F 60% 29.88 in 2.5 miles NNW 5.8 mph - 0.00 in Snow Light Snow
7:17 PM 28.4°F 21.2°F 74% 29.88 in 0.8 miles Variable 3.5 mph - 0.00 in Snow Light Snow
7:27 PM 26.6°F 21.2°F 80% 29.87 in 0.5 miles North 5.8 mph - 0.01 in Snow Snow
7:39 PM 26.6°F 23.0°F 86% 29.88 in 1.5 miles North 5.8 mph - 0.01 in Snow Light Snow
7:53 PM 26.1°F 23.0°F 88% 29.88 in 2.0 miles NNW 4.6 mph - 0.01 in Snow Light Snow
7:57 PM 26.6°F 24.8°F 93% 29.88 in 3.0 miles NNW 4.6 mph - 0.00 in Snow Light Snow
8:53 PM 28.9°F 18.0°F 64% 29.86 in 10.0 miles North 6.9 mph - 0.00 in   Overcast
9:53 PM 28.0°F 17.1°F 63% 29.85 in 10.0 miles North 4.6 mph - N/A   Overcast
10:53 PM 27.0°F 17.1°F 66% 29.85 in 10.0 miles NNW 8.1 mph - N/A   Clear
11:53 PM 25.0°F 9.0°F 51% 29.86 in 10.0 miles NNW 12.7 mph 20.7 mph N/A   Clear
Astronomy
Sunrise:07:16 AM (EST) Moon Rise:12:43 PM (EST)1/21
Sunset:05:04 PM (EST) Moon Set:02:42 AM (EST)1/21
Moon Phase
Jan. 21 Jan. 26 Feb. 03 Feb. 10 Feb. 17

Copyright © 2014 The Weather Underground, Inc.